Weather History for Norfolk, NE

Change the Weather History Date:

Monday, June 18, 2012

  Actual Average Record
Temperature  
Mean Temperature 86 °F 71 °F  
Max Temperature 97 °F 83 °F 105 °F (1953)
Min Temperature 75 °F 60 °F 46 °F (1912)
Degree Days  
Heating Degree Days 0 1  
Month to date heating degree days 16 27  
Since 1 June heating degree days 16 27  
Since 1 July heating degree days 5456 6640  
Cooling Degree Days 21 7  
Month to date cooling degree days 133 88  
Year to date cooling degree days 285 149  
Since 1 June cooling degree days 133 88  
Growing Degree Days 36 (Base 50)    
Moisture  
Dew Point 64 °F    
Average Humidity 48    
Maximum Humidity 64    
Minimum Humidity 31    
Precipitation  
Precipitation 0.00 in 0.13 in 3.31 in (1994)
Month to date precipitation 0.31 2.58  
Year to date precipitation 10.27 12.28  
Snow  
Snow 0.00 in 0.00 in - ()
Month to date snowfall 0.0 0.0  
Since 1 July snowfall 15.3 30.5  
Snow Depth 0.00 in    
Sea Level Pressure  
Sea Level Pressure 29.44 in    
Wind  
Wind Speed 15 mph (SSW)    
Max Wind Speed 32 mph    
Max Gust Speed 44 mph    
Visibility 10 miles    
Events      
T = Trace of Precipitation, MM = Missing Value Source: NWS Daily Summary

Daily Weather History Graph

Daily Weather History Graph

Search for Another Location

Airport:

Trip Planner

Search our weather history database for the weather conditions in past years. The results will help you decide how hot, cold, wet, or windy it might be!

Date:

Astronomy

Jun. 18, 2012 Rise Set
Actual Time 5:53 AM CDT 9:08 PM CDT
Civil Twilight 5:19 AM CDT 9:42 PM CDT
Nautical Twilight 4:34 AM CDT 10:27 PM CDT
Astronomical Twilight 3:41 AM CDT 11:20 PM CDT
Moon 5:09 AM CDT (6/18) 8:27 PM CDT (6/18)
Length of Visible Light 16h 23m
Length of Day
15h 14m
Waning Crescent, 1% of the Moon is Illuminated
Jun 18
Waning Crescent
Jun 19
New
Jun 26
First Quarter
Jul 3
Full
Jul 10
Last Quarter

Hourly Weather History & Observations

Time (CDT) Temp. Heat Index Dew Point Humidity Pressure Visibility Wind Dir Wind Speed Gust Speed Precip Events Conditions
12:56 AM 80.1 °F 80.7 °F 59.0 °F 48% 29.41 in 10.0 mi South 20.7 mph 32.2 mph N/A   Clear
1:56 AM 79.0 °F - 61.0 °F 54% 29.39 in 10.0 mi South 19.6 mph 33.4 mph N/A   Clear
2:56 AM 77.0 °F - 61.0 °F 58% 29.37 in 10.0 mi South 23.0 mph 29.9 mph N/A   Clear
3:56 AM 77.0 °F - 62.1 °F 60% 29.36 in 10.0 mi South 25.3 mph 32.2 mph N/A   Clear
4:56 AM 75.9 °F - 62.1 °F 62% 29.34 in 10.0 mi South 26.5 mph 34.5 mph N/A   Clear
5:56 AM 75.9 °F - 62.1 °F 62% 29.34 in 10.0 mi SSW 26.5 mph 43.7 mph N/A   Clear
7:56 AM 77.0 °F - 63.0 °F 62% 29.41 in 10.0 mi SSW 16.1 mph 24.2 mph N/A   Clear
8:56 AM 81.0 °F 82.5 °F 64.0 °F 56% 29.43 in 10.0 mi WSW 10.4 mph - N/A   Clear
9:56 AM 84.0 °F 84.4 °F 61.0 °F 46% 29.44 in 10.0 mi SW 9.2 mph - N/A   Clear
10:56 AM 86.0 °F 86.1 °F 61.0 °F 43% 29.45 in 10.0 mi SSW 11.5 mph - N/A   Clear
11:56 AM 89.1 °F 89.3 °F 62.1 °F 40% 29.46 in 10.0 mi SW 11.5 mph - N/A   Clear
12:56 PM 91.9 °F 91.5 °F 60.1 °F 34% 29.47 in 10.0 mi West 10.4 mph - N/A   Clear
1:56 PM 93.0 °F 92.7 °F 60.1 °F 33% 29.47 in 10.0 mi West 5.8 mph - N/A   Clear
2:56 PM 95.0 °F 95.2 °F 61.0 °F 32% 29.47 in 10.0 mi Variable 4.6 mph - N/A   Clear
3:56 PM 97.0 °F 101.0 °F 66.9 °F 37% 29.47 in 10.0 mi South 13.8 mph 20.7 mph N/A   Clear
4:56 PM 96.1 °F 99.9 °F 66.9 °F 38% 29.47 in 10.0 mi SSW 10.4 mph - N/A   Clear
5:56 PM 95.0 °F 100.7 °F 69.1 °F 43% 29.47 in 10.0 mi South 15.0 mph - N/A   Clear
6:56 PM 93.0 °F 96.4 °F 66.9 °F 42% 29.48 in 10.0 mi South 13.8 mph 23.0 mph N/A   Clear
7:56 PM 91.0 °F 95.6 °F 69.1 °F 48% 29.49 in 10.0 mi South 11.5 mph - N/A   Clear
8:56 PM 87.1 °F 91.3 °F 69.1 °F 55% 29.49 in 10.0 mi SSE 9.2 mph - N/A   Clear
9:56 PM 84.9 °F 88.2 °F 68.0 °F 57% 29.50 in 10.0 mi SSE 11.5 mph - N/A   Clear
10:56 PM 84.9 °F 87.6 °F 66.9 °F 55% 29.50 in 10.0 mi South 17.3 mph - N/A   Clear
11:56 PM 84.0 °F 86.5 °F 66.9 °F 56% 29.50 in 10.0 mi South 18.4 mph 25.3 mph N/A   Clear